Regional Weather Roundup
Issued by NWS

Home | Current Version | Previous Version | Graphics & Text | Print | Product List | Glossary On
Versions: 1 2 3 4 5 6 7 8 9 10 11 12 13 14 15 16 17 18 19 20 21 22 23 24 25 26 27 28 29 30 31 32 33 34 35 36 37 38 39 40 41 42 43 44 45 46 47 48 49
000
ASUS45 KBOU 202207
RWRCO

WEATHER ROUNDUP FOR COLORADO
NATIONAL WEATHER SERVICE DENVER/BOULDER CO
300 PM MST SAT DEC 20 2014

NOTE: "FAIR" INDICATES FEW OR NO CLOUDS BELOW 12000 FEET WITH NO
SIGNIFICANT WEATHER AND/OR OBSTRUCTIONS TO VISIBILITY.

COZ001>005-013-030-031-202300-
...NORTHWEST COLORADO...

CITY           SKY/WX    TMP DP  RH WIND       PRES   REMARKS
CRAIG          CLOUDY    33  25  72 E3        30.06F
HAYDEN         CLOUDY    28  21  74 E5        30.06S WCI  23
MEEKER         CLOUDY    33  25  72 CALM      30.06S
MOUNT WERNER   NOT AVBL
STEAMBOAT SPGS CLOUDY    26  23  85 CALM      30.06S
WALDEN         CLOUDY    30  21  69 SW15      30.01S WCI  19
$$

COZ006>008-011-202300-
...WEST CENTRAL VALLEYS...

CITY           SKY/WX    TMP DP  RH WIND       PRES   REMARKS
GRAND JUNCTION CLOUDY    37  27  67 NW7       30.12S
MONTROSE       PTSUNNY   39  22  50 NW6       30.09F
EAGLE          PTSUNNY   30  21  69 SW3       30.11S
RIFLE          CLOUDY    35  23  61 CALM      30.10F
DELTA          PTSUNNY   42  24  48 SW7       30.10S
NUCLA          PTSUNNY   39  27  60 CALM      30.13F
$$

COZ017>023-064>068-202300-
...SOUTHWEST COLORADO...

CITY           SKY/WX    TMP DP  RH WIND       PRES   REMARKS
DURANGO        SUNNY     39  25  57 SW13      30.08S
CORTEZ         SUNNY     40  27  59 W8        30.10F
PAGOSA SPRINGS CLOUDY    38  21  51 CALM      30.08R
TELLURIDE      MOSUNNY   33  21  59 W9        30.09F WCI  26
WOLF CREEK PAS MOSUNNY   23  14  68 MISG      30.09S
$$

COZ009-010-012-014-032>034-037-058>063-202300-
...CENTRAL COLORADO...

CITY           SKY/WX    TMP DP  RH WIND       PRES   REMARKS
ASPEN          PTSUNNY   29  19  66 NW6       30.05F WCI  23
BUENA VISTA    MOSUNNY   39  13  33 W18G28    30.00R
COPPER MTN     LGT SNOW  23  18  80 W22       30.04F WCI   8
BERTHOUD PASS  CLOUDY    12   9  85 MISG      30.01R
COTTONWOOD PAS PTSUNNY   34  12  40 NW7       30.02S WCI  28
GUNNISON       CLOUDY    27  12  54 CALM      30.13F
KREMMLING      CLOUDY    28  19  69 CALM      30.07F
LEADVILLE      CLOUDY    28  15  58 NW10G21   30.03R WCI  19
MONARCH PASS   CLOUDY    18  14  86 MISG      30.15R
SALIDA         MOSUNNY   44  16  31 SW21G29   30.07S
SUNLIGHT       LGT SNOW  25  23  93 CALM      30.09S
WILKERSON PASS SUNNY     28  14  54 CALM      30.05S
$$

COZ069>075-202300-
...SAN LUIS VALLEY/SANGRE DE CRISTO MOUNTAINS...

CITY           SKY/WX    TMP DP  RH WIND       PRES   REMARKS
ALAMOSA        CLOUDY    38  14  37 CALM      30.04S
LA VETA PASS   SUNNY     32  18  55 S7        30.03R WCI  26
SAGUACHE       MOSUNNY   36  14  41 CALM      30.05S
$$

COZ035-036-038>040-202300-
...NORTHERN COLORADO FRONT RANGE...

CITY           SKY/WX    TMP DP  RH WIND       PRES   REMARKS
DENVER INTL AP MOSUNNY   48  19  31 NE5       29.94R
DMNS CITY PARK   N/A     48  16  28 NE5       29.93S
AURORA         MOSUNNY   49  18  28 N6        29.95R
FRONT RANGE AP NOT AVBL
ERIE MUNI ARPT   N/A     47  17  30 NE3       29.93S
BOULDER MUN AP SUNNY     46  19  34 NE3       29.93S
CENTENNIAL     MOSUNNY   48  18  30 NE5       29.94R
BROOMFIELD     PTSUNNY   48  18  29 SW3       29.94R
FORT COLLINS   MOSUNNY   48  19  32 E6        29.96S
LONGMONT       SUNNY     50  20  31 E5        29.96R
$$

COZ041-046-047-076>085-087-088-202300-
...PIKES PEAK/PALMER DIVIDE AND SOUTHERN FOOTHILLS...

CITY           SKY/WX    TMP DP  RH WIND       PRES   REMARKS
COLO. SPRINGS  MOSUNNY   48  15  26 S9        29.94R
A. F. ACADEMY  MOSUNNY   51  14  22 W13G18    29.93R
ELLICOTT       NOT AVBL
FALCON         CLOUDY    49  12  22 SE8       29.96R
FORT CARSON    CLOUDY    49  17  28 E3        29.92S
LIMON          SUNNY     51  13  21 S14G22    29.93F
MONUMENT HILL  SUNNY     45  14  29 CALM      29.95R
TRINIDAD       SUNNY     51  13  21 SE8       29.94F
$$

COZ042>045-048>051-090-091-202300-
...NORTHEAST COLORADO...

CITY           SKY/WX    TMP DP  RH WIND       PRES   REMARKS
GREELEY ARPT   SUNNY     48  19  32 SE9       29.93S
AKRON          CLOUDY    44  24  45 NE5       29.95S
BURLINGTON     MOSUNNY   51  25  36 CALM      29.96R
WRAY           CLOUDY    41  32  70 NW6       29.96S
STERLING       PTSUNNY   32  28  86 SW6       29.95S WCI  26
HOLYOKE        PTSUNNY   43  32  65 SW5       29.96S
FORT MORGAN    MOSUNNY   34  25  70 CALM      29.95F
$$

COZ086-089-092>099-202300-
...SOUTHEAST COLORADO...

CITY           SKY/WX    TMP DP  RH WIND       PRES   REMARKS
PUEBLO         SUNNY     54  18  24 S10       29.90F
LA JUNTA       PTSUNNY   46  26  45 SE5       29.94S
LAMAR          PTSUNNY   47  24  40 N3        29.95R
SPRINGFIELD      N/A     51  20  29 S6        29.95S
$$


USA.gov is the U.S. government's official web portal to all federal, state and local government web resources and services.